Laramie, WY

8:48 AM MST on February 14, 2016 (GMT -0700)
Laramie Regional

Weather History for KLAR - December, 2014

Change the Weather History Date:

Wednesday, December 10, 2014

  Actual Average Record
Temperature  
Mean Temperature 36 °F 21 °F  
Max Temperature 52 °F 32 °F 58 °F (1990)
Min Temperature 19 °F 10 °F -32 °F (1972)
Degree Days  
Heating Degree Days 29 44  
Month to date heating degree days 296 432  
Since 1 July heating degree days 2424 2744  
Cooling Degree Days 0 0  
Month to date cooling degree days 0 0  
Year to date cooling degree days 67 67  
Moisture  
Dew Point 14 °F    
Average Humidity 50    
Maximum Humidity 74    
Minimum Humidity 26    
Precipitation  
Precipitation 0.00 in 0.01 in 0.17 in (1949)
Month to date precipitation T 0.12  
Year to date precipitation 13.70 10.72  
Sea Level Pressure  
Sea Level Pressure 30.15 in    
Wind  
Wind Speed 6 mph (SW)    
Max Wind Speed 13 mph    
Max Gust Speed 15 mph    
Visibility 10 miles    
Events      
T = Trace of Precipitation, MM = Missing Value Source: NWS Daily Summary

Daily Weather History Graph

Daily Weather History Graph

Search for Another Location

Airport or City:

Trip Planner

Search our weather history database for the weather conditions in past years. The results will help you decide how hot, cold, wet, or windy it might be!

Date:

Astronomy

Dec. 10, 2014 Rise Set
Actual Time 7:17 AM MST 4:33 PM MST
Civil Twilight 6:46 AM MST 5:04 PM MST
Nautical Twilight 6:11 AM MST 5:39 PM MST
Astronomical Twilight 5:38 AM MST 6:12 PM MST
Moon 8:52 PM MST (12/10) 10:07 AM MST (12/10)
Length of Visible Light 10h 18m
Length of Day
9h 15m
Waning Gibbous, 83% of the Moon is Illuminated
Dec 10
Waning Gibbous
Dec 14
Last Quarter
Dec 21
New
Dec 28
First Quarter
Jan 4
Full

Hourly Weather History & Observations

Time (MST) Temp. Windchill Dew Point Humidity Pressure Visibility Wind Dir Wind Speed Gust Speed Precip Events Conditions
12:53 AM 28.9 °F 21.9 °F 9.0 °F 43% 30.07 in 10.0 mi SW 6.9 mph - N/A   Clear
1:53 AM 26.1 °F 18.4 °F 9.0 °F 49% 30.09 in 10.0 mi WSW 6.9 mph - N/A   Clear
2:53 AM 24.1 °F - 10.0 °F 55% 30.11 in 10.0 mi Calm Calm - N/A   Clear
3:53 AM 24.1 °F - 9.0 °F 53% 30.14 in 10.0 mi Calm Calm - N/A   Clear
4:53 AM 24.1 °F 17.0 °F 10.0 °F 55% 30.19 in 10.0 mi SE 5.8 mph - N/A   Clear
5:53 AM 25.0 °F 20.7 °F 12.0 °F 58% 30.22 in 10.0 mi Variable 3.5 mph - N/A   Clear
6:53 AM 27.0 °F 18.7 °F 10.0 °F 49% 30.24 in 10.0 mi SW 8.1 mph - N/A   Clear
7:53 AM 28.9 °F 21.9 °F 12.0 °F 49% 30.23 in 10.0 mi SW 6.9 mph - N/A   Clear
8:53 AM 37.9 °F 34.4 °F 15.1 °F 39% 30.20 in 10.0 mi South 4.6 mph - N/A   Clear
9:53 AM 41.0 °F 38.0 °F 15.1 °F 35% 30.22 in 10.0 mi East 4.6 mph - N/A   Clear
10:53 AM 44.1 °F 40.1 °F 15.1 °F 31% 30.19 in 10.0 mi NNE 6.9 mph - N/A   Clear
11:53 AM 46.9 °F - 17.1 °F 30% 30.16 in 10.0 mi North 5.8 mph - N/A   Clear
12:53 PM 48.9 °F - 17.1 °F 28% 30.08 in 10.0 mi NW 10.4 mph - N/A   Clear
1:53 PM 50.0 °F - 18.0 °F 28% 30.07 in 10.0 mi NNW 5.8 mph - N/A   Clear
2:53 PM 51.1 °F - 18.0 °F 27% 30.07 in 10.0 mi NNW 3.5 mph - N/A   Clear
3:53 PM 45.0 °F 40.6 °F 19.0 °F 36% 30.11 in 10.0 mi North 8.1 mph - N/A   Clear
4:53 PM 37.9 °F 32.7 °F 19.0 °F 47% 30.15 in 10.0 mi NE 6.9 mph - N/A   Clear
5:53 PM 33.1 °F 26.1 °F 18.0 °F 54% 30.18 in 10.0 mi NE 8.1 mph - N/A   Clear
6:53 PM 26.1 °F 21.9 °F 16.0 °F 66% 30.21 in 10.0 mi SSW 3.5 mph - N/A   Clear
7:53 PM 25.0 °F 19.3 °F 16.0 °F 69% 30.21 in 10.0 mi SW 4.6 mph - N/A   Clear
8:53 PM 24.1 °F 16.0 °F 16.0 °F 71% 30.16 in 10.0 mi South 6.9 mph - N/A   Clear
9:53 PM 23.0 °F 14.7 °F 15.1 °F 72% 30.14 in 10.0 mi South 6.9 mph - N/A   Clear
10:53 PM 19.9 °F 14.9 °F 12.9 °F 74% 30.14 in 10.0 mi SW 3.5 mph - N/A   Clear
11:53 PM 19.9 °F 9.3 °F 14.0 °F 78% 30.10 in 10.0 mi SSE 9.2 mph - N/A   Clear